This is the latest recevied weather packets stored in our database for station/object K7AEL. If no packets are shown the sender has not sent any weather packets the latest 10 day(s).
| Time | Temp. | Humidity | Pressure | Rain* | Wind** | Luminosity | Snow |
|---|---|---|---|---|---|---|---|
| 1778021669 | 25° C | 29% | 1010.8 hPa | 0 mm | - | 492 W/m² | - |
| 1778021365 | 25.56° C | 29% | 1010.8 hPa | 0 mm | - | 501 W/m² | - |
| 1778021062 | 26.11° C | 28% | 1010.9 hPa | 0 mm | - | 510 W/m² | - |
| 1778020759 | 25.56° C | 29% | 1011 hPa | 0 mm | - | 519 W/m² | - |
| 1778020456 | 24.44° C | 29% | 1011 hPa | 0 mm | - | 525 W/m² | - |
| 1778020152 | 24.44° C | 30% | 1011.2 hPa | 0 mm | - | 132 W/m² | - |
| 1778019849 | 24.44° C | 29% | 1011.1 hPa | 0 mm | - | 177 W/m² | - |
| 1778019545 | 24.44° C | 31% | 1011.3 hPa | 0 mm | - | 176 W/m² | - |
| 1778019242 | 25° C | 31% | 1011.3 hPa | 0 mm | - | 138 W/m² | - |
| 1778018939 | 25° C | 30% | 1011.2 hPa | 0 mm | - | 654 W/m² | - |
| 1778018636 | 25° C | 30% | 1011.3 hPa | 0 mm | - | 205 W/m² | - |
| 1778018334 | 24.44° C | 31% | 1011.4 hPa | 0 mm | - | 668 W/m² | - |
| 1778018032 | 25° C | 31% | 1011.4 hPa | 0 mm | - | 430 W/m² | - |
| 1778017730 | 25° C | 30% | 1011.7 hPa | 0 mm | - | 621 W/m² | - |
| 1778017427 | 25° C | 30% | 1011.4 hPa | 0 mm | - | 562 W/m² | - |
| 1778017124 | 25.56° C | 30% | 1011.8 hPa | 0 mm | - | 216 W/m² | - |
| 1778016822 | 24.44° C | 31% | 1011.6 hPa | 0 mm | - | 211 W/m² | - |
| 1778016517 | 25.56° C | 30% | 1011.7 hPa | 0 mm | - | 668 W/m² | - |
| 1778016214 | 25.56° C | 32% | 1012 hPa | 0 mm | - | 736 W/m² | - |
| 1778015910 | 24.44° C | 33% | 1011.8 hPa | 0 mm | - | 732 W/m² | - |
| 1778015609 | 23.89° C | 36% | 1012 hPa | 0 mm | - | 713 W/m² | - |
| 1778015305 | 23.33° C | 37% | 1012.1 hPa | 0 mm | - | 810 W/m² | - |
| 1778015002 | 23.33° C | 41% | 1012.2 hPa | 0 mm | - | 693 W/m² | - |
| 1778014698 | 23.89° C | 42% | 1012.3 hPa | 0 mm | - | 241 W/m² | - |
| 1778014397 | 24.44° C | 40% | 1011.9 hPa | 0 mm | - | 220 W/m² | - |
* Rain latest hour (hover to see other rain measurements)
** Current wind speed in m/s (hover to see current wind gust speed)